Time,TemperatureF,DewpointF,PressureIn,WindDirection,WindDirectionDegrees,WindSpeedMPH,WindSpeedGustMPH,Humidity,HourlyPrecipIn,Conditions,Clouds,dailyrainin,SolarRadiationWatts/m^2,SoftwareType,DateUTC
2013-05-18 00:01:00,73.4,70.9,29.79,SE,127,1.8,2.0,92,0.00,CLR,,0.00,0.0,WeatherDisplay:10.37,2013-05-18 05:01:00,
2013-05-18 00:06:00,73.3,70.8,29.79,ESE,114,4.0,8.1,92,0.00,CLR,,0.00,0.0,WeatherDisplay:10.37,2013-05-18 05:06:00,
2013-05-18 00:11:00,73.2,70.7,29.79,ESE,114,0.8,4.6,92,0.00,CLR,,0.00,0.0,WeatherDisplay:10.37,2013-05-18 05:11:00,
2013-05-18 00:16:00,73.2,70.7,29.79,ESE,122,1.3,4.6,92,0.00,CLR,,0.00,0.0,WeatherDisplay:10.37,2013-05-18 05:16:00,
2013-05-18 00:21:00,73.1,70.6,29.79,SE,124,1.4,4.0,92,0.00,CLR,,0.00,0.0,WeatherDisplay:10.37,2013-05-18 05:21:00,
2013-05-18 00:26:00,73.0,70.9,29.79,East,94,1.5,2.3,93,0.00,CLR,,0.00,0.0,WeatherDisplay:10.37,2013-05-18 05:26:00,
2013-05-18 00:31:00,72.6,70.5,29.79,East,94,0.6,3.5,93,0.00,CLR,,0.00,0.0,WeatherDisplay:10.37,2013-05-18 05:31:00,
2013-05-18 00:36:00,72.5,70.4,29.79,East,98,1.1,4.0,93,0.00,CLR,,0.00,0.0,WeatherDisplay:10.37,2013-05-18 05:36:00,
2013-05-18 00:41:00,72.6,70.8,29.78,SE,127,2.0,6.9,94,0.00,CLR,,0.00,0.0,WeatherDisplay:10.37,2013-05-18 05:41:00,
2013-05-18 00:46:00,72.8,71.0,29.78,ESE,121,4.2,6.9,94,0.00,CLR,,0.00,0.0,WeatherDisplay:10.37,2013-05-18 05:46:00,
2013-05-18 00:51:00,72.7,70.6,29.78,ESE,122,1.3,5.8,93,0.00,CLR,,0.00,0.0,WeatherDisplay:10.37,2013-05-18 05:51:00,
2013-05-18 00:56:00,72.7,70.6,29.78,ESE,122,2.1,5.8,93,0.00,CLR,,0.00,0.0,WeatherDisplay:10.37,2013-05-18 05:56:00,
2013-05-18 01:01:00,72.6,70.8,29.78,ESE,114,1.3,5.0,94,0.00,CLR,,0.00,0.0,WeatherDisplay:10.37,2013-05-18 06:01:00,
2013-05-18 01:06:00,72.5,70.7,29.78,ESE,116,0.8,8.1,94,0.00,CLR,,0.00,0.0,WeatherDisplay:10.37,2013-05-18 06:06:00,
2013-05-18 01:11:00,72.4,70.6,29.79,ESE,118,1.4,5.0,94,0.00,CLR,,0.00,0.0,WeatherDisplay:10.37,2013-05-18 06:11:00,
2013-05-18 01:16:00,72.4,70.6,29.78,ESE,118,2.2,3.5,94,0.00,CLR,,0.00,0.0,WeatherDisplay:10.37,2013-05-18 06:16:00,
2013-05-18 01:21:00,72.4,70.6,29.78,SE,124,2.7,5.0,94,0.00,CLR,,0.00,0.0,WeatherDisplay:10.37,2013-05-18 06:21:00,
2013-05-18 01:26:00,72.1,70.3,29.78,SE,124,0.8,3.5,94,0.00,CLR,,0.00,0.0,WeatherDisplay:10.37,2013-05-18 06:26:00,
2013-05-18 01:31:00,72.1,70.3,29.78,SE,132,1.7,1.7,94,0.00,CLR,,0.00,0.0,WeatherDisplay:10.37,2013-05-18 06:31:00,
2013-05-18 01:36:00,72.0,70.5,29.78,SE,132,1.7,5.8,95,0.00,CLR,,0.00,0.0,WeatherDisplay:10.37,2013-05-18 06:36:00,
2013-05-18 01:41:00,72.0,70.5,29.78,SE,132,2.8,3.5,95,0.00,CLR,,0.00,0.0,WeatherDisplay:10.37,2013-05-18 06:41:00,
2013-05-18 01:46:00,71.9,70.4,29.78,SE,132,1.3,2.3,95,0.00,CLR,,0.00,0.0,WeatherDisplay:10.37,2013-05-18 06:46:00,
2013-05-18 01:51:00,71.8,70.3,29.78,SE,133,2.4,5.8,95,0.00,CLR,,0.00,0.0,WeatherDisplay:10.37,2013-05-18 06:51:00,
2013-05-18 01:56:00,71.8,70.3,29.78,SE,133,0.4,4.0,95,0.00,CLR,,0.00,0.0,WeatherDisplay:10.37,2013-05-18 06:56:00,
2013-05-18 02:01:00,71.7,70.2,29.78,SE,133,0.8,2.3,95,0.00,CLR,,0.00,0.0,WeatherDisplay:10.37,2013-05-18 07:01:00,
2013-05-18 02:06:00,71.6,70.1,29.78,SE,132,1.8,6.9,95,0.00,CLR,,0.00,0.0,WeatherDisplay:10.37,2013-05-18 07:06:00,
2013-05-18 02:11:00,71.6,70.1,29.78,SE,132,0.7,1.0,95,0.00,CLR,,0.00,0.0,WeatherDisplay:10.37,2013-05-18 07:11:00,
2013-05-18 02:16:00,71.5,70.3,29.78,SE,132,3.0,4.6,96,0.00,CLR,,0.00,0.0,WeatherDisplay:10.37,2013-05-18 07:16:00,
2013-05-18 02:21:00,71.4,70.2,29.78,SE,132,1.7,3.5,96,0.00,CLR,,0.00,0.0,WeatherDisplay:10.37,2013-05-18 07:21:00,
2013-05-18 02:26:00,71.3,70.1,29.78,SE,132,1.3,2.0,96,0.00,CLR,,0.00,0.0,WeatherDisplay:10.37,2013-05-18 07:26:00,
2013-05-18 02:31:00,71.4,70.2,29.78,SE,132,2.1,2.3,96,0.00,CLR,,0.00,0.0,WeatherDisplay:10.37,2013-05-18 07:31:00,
2013-05-18 02:36:00,71.4,70.2,29.77,SE,132,2.2,3.5,96,0.00,CLR,,0.00,0.0,WeatherDisplay:10.37,2013-05-18 07:36:00,
2013-05-18 02:41:00,71.2,70.0,29.77,SE,132,0.8,3.5,96,0.00,CLR,,0.00,0.0,WeatherDisplay:10.37,2013-05-18 07:41:00,
2013-05-18 02:46:00,71.1,69.9,29.77,SE,131,1.9,2.0,96,0.00,CLR,,0.00,0.0,WeatherDisplay:10.37,2013-05-18 07:46:00,
2013-05-18 02:51:00,71.1,70.2,29.77,SE,131,0.7,2.3,97,0.00,CLR,,0.00,0.0,WeatherDisplay:10.37,2013-05-18 07:51:00,
2013-05-18 02:56:00,71.1,70.2,29.77,SE,131,0.6,2.3,97,0.00,CLR,,0.00,0.0,WeatherDisplay:10.37,2013-05-18 07:56:00,
2013-05-18 03:01:00,71.0,70.1,29.77,SE,131,1.0,4.6,97,0.00,CLR,,0.00,0.0,WeatherDisplay:10.37,2013-05-18 08:01:00,
2013-05-18 03:06:00,71.0,70.1,29.77,SE,131,0.5,2.3,97,0.00,CLR,,0.00,0.0,WeatherDisplay:10.37,2013-05-18 08:06:00,
2013-05-18 03:11:00,71.1,70.2,29.77,SE,131,1.8,4.0,97,0.00,CLR,,0.00,0.0,WeatherDisplay:10.37,2013-05-18 08:11:00,
2013-05-18 03:16:00,71.2,70.3,29.77,SE,131,1.2,4.0,97,0.00,CLR,,0.00,0.0,WeatherDisplay:10.37,2013-05-18 08:16:00,
2013-05-18 03:21:00,71.2,70.3,29.77,SE,132,4.2,4.6,97,0.00,CLR,,0.00,0.0,WeatherDisplay:10.37,2013-05-18 08:21:00,
2013-05-18 03:26:00,71.0,70.1,29.77,SE,132,1.3,2.3,97,0.00,CLR,,0.00,0.0,WeatherDisplay:10.37,2013-05-18 08:26:00,
2013-05-18 03:31:00,71.0,70.1,29.77,SE,131,2.6,5.8,97,0.00,CLR,,0.00,0.0,WeatherDisplay:10.37,2013-05-18 08:31:00,
2013-05-18 03:36:00,71.0,70.1,29.77,SE,135,3.8,5.8,97,0.00,CLR,,0.00,0.0,WeatherDisplay:10.37,2013-05-18 08:36:00,
2013-05-18 03:41:00,71.1,70.2,29.77,SE,138,2.9,6.9,97,0.00,CLR,,0.00,0.0,WeatherDisplay:10.37,2013-05-18 08:41:00,
2013-05-18 03:46:00,71.1,70.2,29.77,SE,135,2.0,4.6,97,0.00,CLR,,0.00,0.0,WeatherDisplay:10.37,2013-05-18 08:46:00,
2013-05-18 03:51:00,71.1,70.2,29.77,SE,135,1.7,4.6,97,0.00,CLR,,0.00,0.0,WeatherDisplay:10.37,2013-05-18 08:51:00,
2013-05-18 03:56:00,71.2,70.3,29.77,SE,134,2.0,6.9,97,0.00,CLR,,0.00,0.0,WeatherDisplay:10.37,2013-05-18 08:56:00,
2013-05-18 04:01:00,71.2,70.3,29.77,SE,133,4.0,4.6,97,0.00,CLR,,0.00,0.0,WeatherDisplay:10.37,2013-05-18 09:01:00,
2013-05-18 04:06:00,71.3,70.4,29.77,SE,133,1.2,5.0,97,0.00,CLR,,0.00,0.0,WeatherDisplay:10.37,2013-05-18 09:06:00,
2013-05-18 04:11:00,71.2,70.3,29.77,SE,133,2.4,5.8,97,0.00,CLR,,0.00,0.0,WeatherDisplay:10.37,2013-05-18 09:11:00,
2013-05-18 04:16:00,71.1,70.2,29.77,SE,133,0.6,1.1,97,0.00,CLR,,0.00,0.0,WeatherDisplay:10.37,2013-05-18 09:16:00,
2013-05-18 04:21:00,71.1,70.2,29.77,SE,133,2.7,4.0,97,0.00,CLR,,0.00,0.0,WeatherDisplay:10.37,2013-05-18 09:21:00,
2013-05-18 04:26:00,71.0,70.1,29.77,SE,133,2.4,4.6,97,0.00,CLR,,0.00,0.0,WeatherDisplay:10.37,2013-05-18 09:26:00,
2013-05-18 04:31:00,71.0,70.1,29.77,SE,133,2.1,3.5,97,0.00,CLR,,0.00,0.0,WeatherDisplay:10.37,2013-05-18 09:31:00,
2013-05-18 04:36:00,71.0,70.1,29.77,SE,133,2.2,3.5,97,0.00,CLR,,0.00,0.0,WeatherDisplay:10.37,2013-05-18 09:36:00,
2013-05-18 04:41:00,71.0,70.1,29.77,SE,133,1.2,4.6,97,0.00,CLR,,0.00,0.0,WeatherDisplay:10.37,2013-05-18 09:41:00,
2013-05-18 04:46:00,70.9,70.0,29.77,SE,133,0.0,3.5,97,0.00,CLR,,0.00,0.0,WeatherDisplay:10.37,2013-05-18 09:46:00,
2013-05-18 04:51:00,70.9,70.0,29.77,SE,133,3.0,6.9,97,0.00,CLR,,0.00,0.0,WeatherDisplay:10.37,2013-05-18 09:51:00,
2013-05-18 04:56:00,71.0,70.1,29.77,SE,133,0.4,3.5,97,0.00,CLR,,0.00,0.0,WeatherDisplay:10.37,2013-05-18 09:56:00,
2013-05-18 05:01:00,71.0,70.1,29.77,SE,131,2.9,6.9,97,0.00,CLR,,0.00,0.0,WeatherDisplay:10.37,2013-05-18 10:01:00,
2013-05-18 05:06:00,71.0,70.1,29.77,SE,132,0.9,3.5,97,0.00,CLR,,0.00,0.0,WeatherDisplay:10.37,2013-05-18 10:06:00,
2013-05-18 05:11:00,70.8,69.9,29.77,SE,133,1.0,2.3,97,0.00,CLR,,0.00,0.0,WeatherDisplay:10.37,2013-05-18 10:11:00,
2013-05-18 05:16:00,70.8,69.9,29.77,SE,133,1.5,4.6,97,0.00,CLR,,0.00,0.0,WeatherDisplay:10.37,2013-05-18 10:16:00,
2013-05-18 05:21:00,70.8,70.2,29.77,SE,132,1.6,5.8,98,0.00,CLR,,0.00,0.0,WeatherDisplay:10.37,2013-05-18 10:21:00,
2013-05-18 05:26:00,70.9,70.3,29.77,SE,132,0.7,2.3,98,0.00,CLR,,0.00,0.0,WeatherDisplay:10.37,2013-05-18 10:26:00,
2013-05-18 05:31:00,70.8,70.2,29.77,SE,132,2.4,5.8,98,0.00,SCT,,0.00,0.0,WeatherDisplay:10.37,2013-05-18 10:31:00,
2013-05-18 05:36:00,70.8,70.2,29.77,SE,132,1.5,6.9,98,0.00,SCT,,0.00,0.0,WeatherDisplay:10.37,2013-05-18 10:36:00,
2013-05-18 05:41:00,70.7,70.1,29.77,SE,132,1.7,3.5,98,0.00,SCT,,0.00,0.0,WeatherDisplay:10.37,2013-05-18 10:41:00,
2013-05-18 05:46:00,70.7,70.1,29.77,SE,132,1.9,5.8,98,0.00,SCT,,0.00,0.0,WeatherDisplay:10.37,2013-05-18 10:46:00,
2013-05-18 05:51:00,70.7,70.1,29.77,SSE,153,4.3,8.1,98,0.00,SCT,,0.00,0.0,WeatherDisplay:10.37,2013-05-18 10:51:00,
2013-05-18 05:56:00,70.7,70.1,29.77,SSE,152,2.8,6.9,98,0.00,SCT,,0.00,0.0,WeatherDisplay:10.37,2013-05-18 10:56:00,
2013-05-18 06:01:00,70.7,70.1,29.77,SSE,151,2.3,6.9,98,0.00,SCT,,0.00,0.0,WeatherDisplay:10.37,2013-05-18 11:01:00,
2013-05-18 06:06:00,70.7,70.1,29.78,SSE,151,1.9,5.8,98,0.00,SCT,,0.00,0.0,WeatherDisplay:10.37,2013-05-18 11:06:00,
2013-05-18 06:11:00,70.8,70.2,29.78,SSE,150,1.6,6.9,98,0.00,SCT,,0.00,0.0,WeatherDisplay:10.37,2013-05-18 11:11:00,
2013-05-18 06:16:00,70.7,70.1,29.78,SSE,151,3.0,5.8,98,0.00,SCT,,0.00,0.0,WeatherDisplay:10.37,2013-05-18 11:16:00,
2013-05-18 06:21:00,70.7,70.1,29.78,SSE,150,3.6,4.6,98,0.00,SCT,,0.00,7.7,WeatherDisplay:10.37,2013-05-18 11:21:00,
2013-05-18 06:26:00,70.6,70.0,29.78,SSE,150,2.8,7.0,98,0.00,SCT,,0.00,9.9,WeatherDisplay:10.37,2013-05-18 11:26:00,
2013-05-18 06:31:00,70.5,69.9,29.79,SSE,150,2.7,5.8,98,0.00,SCT,,0.00,13.2,WeatherDisplay:10.37,2013-05-18 11:31:00,
2013-05-18 06:36:00,70.6,70.0,29.79,SSE,149,4.2,7.0,98,0.00,SCT,,0.00,15.4,WeatherDisplay:10.37,2013-05-18 11:36:00,
2013-05-18 06:41:00,70.6,70.0,29.79,SSE,149,1.3,6.9,98,0.00,SCT,,0.00,23.1,WeatherDisplay:10.37,2013-05-18 11:41:00,
2013-05-18 06:46:00,70.7,70.1,29.79,SE,144,2.8,5.8,98,0.00,SCT,,0.00,30.8,WeatherDisplay:10.37,2013-05-18 11:46:00,
2013-05-18 06:51:00,70.8,70.2,29.79,SSE,155,4.0,6.9,98,0.00,SCT,,0.00,38.5,WeatherDisplay:10.37,2013-05-18 11:51:00,
2013-05-18 06:56:00,70.9,70.3,29.80,SSE,150,5.7,8.1,98,0.00,SCT,,0.00,44.0,WeatherDisplay:10.37,2013-05-18 11:56:00,
2013-05-18 07:01:00,71.0,70.1,29.80,SSE,154,2.4,6.9,97,0.00,SCT,,0.00,44.0,WeatherDisplay:10.37,2013-05-18 12:01:00,
2013-05-18 07:06:00,71.0,70.1,29.80,SSE,159,5.5,9.2,97,0.00,SCT,,0.00,44.0,WeatherDisplay:10.37,2013-05-18 12:06:00,
2013-05-18 07:11:00,71.1,70.2,29.80,SE,142,4.0,5.8,97,0.00,SCT,,0.00,44.0,WeatherDisplay:10.37,2013-05-18 12:11:00,
2013-05-18 07:16:00,71.1,70.2,29.80,SSE,148,3.5,5.8,97,0.00,SCT,,0.00,48.4,WeatherDisplay:10.37,2013-05-18 12:16:00,
2013-05-18 07:21:00,71.1,70.2,29.81,SSE,148,3.1,6.9,97,0.00,SCT,,0.00,63.8,WeatherDisplay:10.37,2013-05-18 12:21:00,
2013-05-18 07:26:00,71.3,70.4,29.81,SSE,148,2.7,6.9,97,0.00,SCT,,0.00,69.3,WeatherDisplay:10.37,2013-05-18 12:26:00,
2013-05-18 07:31:00,71.3,70.4,29.81,SSE,149,4.3,10.0,97,0.00,SCT,,0.00,81.4,WeatherDisplay:10.37,2013-05-18 12:31:00,
2013-05-18 07:36:00,71.5,70.3,29.81,SSE,147,2.2,4.6,96,0.00,SCT,,0.00,84.7,WeatherDisplay:10.37,2013-05-18 12:36:00,
2013-05-18 07:41:00,71.6,70.4,29.82,SSE,147,0.6,3.5,96,0.00,SCT,,0.00,94.6,WeatherDisplay:10.37,2013-05-18 12:41:00,
2013-05-18 07:46:00,71.9,70.7,29.82,SE,145,1.4,2.3,96,0.00,CLR,,0.00,84.7,WeatherDisplay:10.37,2013-05-18 12:46:00,
2013-05-18 07:51:00,71.9,70.4,29.82,SSE,151,1.2,4.0,95,0.00,CLR,,0.00,58.3,WeatherDisplay:10.37,2013-05-18 12:51:00,
2013-05-18 07:56:00,71.7,70.2,29.82,SSE,151,2.9,3.5,95,0.00,CLR,,0.00,44.0,WeatherDisplay:10.37,2013-05-18 12:56:00,
2013-05-18 08:01:00,71.6,70.1,29.83,SSE,153,1.3,2.3,95,0.00,CLR,,0.00,42.9,WeatherDisplay:10.37,2013-05-18 13:01:00,
2013-05-18 08:06:00,71.5,70.0,29.83,SSE,153,2.3,5.8,95,0.00,CLR,,0.00,44.0,WeatherDisplay:10.37,2013-05-18 13:06:00,
2013-05-18 08:11:00,71.4,69.9,29.83,SSE,153,1.1,4.0,95,0.00,CLR,,0.00,53.9,WeatherDisplay:10.37,2013-05-18 13:11:00,
2013-05-18 08:16:00,71.5,70.0,29.84,SSE,151,0.4,1.1,95,0.00,CLR,,0.00,150.7,WeatherDisplay:10.37,2013-05-18 13:16:00,
2013-05-18 08:21:00,71.9,70.4,29.83,SSE,151,1.5,3.5,95,0.00,CLR,,0.00,229.9,WeatherDisplay:10.37,2013-05-18 13:21:00,
2013-05-18 08:26:00,72.4,70.9,29.83,SSE,151,0.8,3.5,95,0.00,CLR,,0.00,262.9,WeatherDisplay:10.37,2013-05-18 13:26:00,
2013-05-18 08:31:00,72.7,70.6,29.84,SSE,151,0.3,3.5,93,0.00,CLR,,0.00,303.6,WeatherDisplay:10.37,2013-05-18 13:31:00,
2013-05-18 08:36:00,73.3,71.2,29.84,SSE,151,2.7,5.8,93,0.00,CLR,,0.00,323.4,WeatherDisplay:10.37,2013-05-18 13:36:00,
2013-05-18 08:41:00,73.8,71.6,29.84,SSE,151,0.6,1.1,93,0.00,CLR,,0.00,357.5,WeatherDisplay:10.37,2013-05-18 13:41:00,
2013-05-18 08:46:00,74.4,71.6,29.84,SSE,151,1.3,5.8,91,0.00,CLR,,0.00,338.8,WeatherDisplay:10.37,2013-05-18 13:46:00,
2013-05-18 08:51:00,74.7,71.6,29.84,SSE,151,0.0,1.1,90,0.00,CLR,,0.00,387.2,WeatherDisplay:10.37,2013-05-18 13:51:00,
2013-05-18 08:56:00,74.6,71.5,29.84,SSE,151,3.1,5.8,90,0.00,CLR,,0.00,206.8,WeatherDisplay:10.37,2013-05-18 13:56:00,
2013-05-18 09:01:00,74.0,70.9,29.84,SSE,151,0.7,3.5,90,0.00,SCT,,0.00,156.2,WeatherDisplay:10.37,2013-05-18 14:01:00,
2013-05-18 09:06:00,73.9,71.1,29.84,SSE,151,0.3,5.8,91,0.00,SCT,,0.00,365.2,WeatherDisplay:10.37,2013-05-18 14:06:00,
2013-05-18 09:11:00,74.8,72.0,29.84,SSE,151,4.4,7.0,91,0.00,SCT,,0.00,459.8,WeatherDisplay:10.37,2013-05-18 14:11:00,
2013-05-18 09:16:00,75.3,71.8,29.84,SSE,151,2.4,3.5,89,0.00,SCT,,0.00,462.0,WeatherDisplay:10.37,2013-05-18 14:16:00,
2013-05-18 09:21:00,75.7,71.9,29.84,SSE,151,1.1,8.1,88,0.00,SCT,,0.00,462.0,WeatherDisplay:10.37,2013-05-18 14:21:00,
2013-05-18 09:26:00,76.2,71.7,29.84,SSE,153,2.9,8.1,86,0.00,SCT,,0.00,495.0,WeatherDisplay:10.37,2013-05-18 14:26:00,
2013-05-18 09:31:00,76.8,72.6,29.84,South,182,0.4,3.5,87,0.00,SCT,,0.00,456.5,WeatherDisplay:10.37,2013-05-18 14:31:00,
2013-05-18 09:36:00,76.9,72.0,29.84,SSE,156,6.8,11.5,85,0.00,SCT,,0.00,510.4,WeatherDisplay:10.37,2013-05-18 14:36:00,
2013-05-18 09:41:00,77.2,72.0,29.84,SSE,152,3.8,5.8,84,0.00,SCT,,0.00,487.3,WeatherDisplay:10.37,2013-05-18 14:41:00,
2013-05-18 09:46:00,77.3,72.1,29.84,SSE,147,7.1,9.0,84,0.00,SCT,,0.00,556.6,WeatherDisplay:10.37,2013-05-18 14:46:00,
2013-05-18 09:51:00,77.6,72.4,29.84,SSE,150,7.4,11.5,84,0.00,SCT,,0.00,570.9,WeatherDisplay:10.37,2013-05-18 14:51:00,
2013-05-18 09:56:00,78.3,72.7,29.84,SSE,154,4.5,10.4,83,0.00,SCT,,0.00,566.5,WeatherDisplay:10.37,2013-05-18 14:56:00,
2013-05-18 10:01:00,78.6,72.6,29.84,SSE,156,8.0,12.0,82,0.00,SCT,,0.00,602.8,WeatherDisplay:10.37,2013-05-18 15:01:00,
2013-05-18 10:06:00,79.1,73.5,29.84,SSE,150,2.9,6.0,83,0.00,SCT,,0.00,651.2,WeatherDisplay:10.37,2013-05-18 15:06:00,
2013-05-18 10:11:00,79.1,72.8,29.84,SSE,153,1.6,8.1,81,0.00,SCT,,0.00,651.2,WeatherDisplay:10.37,2013-05-18 15:11:00,
2013-05-18 10:16:00,79.6,73.3,29.84,SSE,159,4.0,9.2,81,0.00,SCT,,0.00,674.3,WeatherDisplay:10.37,2013-05-18 15:16:00,
2013-05-18 10:21:00,80.0,73.3,29.84,SE,131,5.3,10.4,80,0.00,SCT,,0.00,694.1,WeatherDisplay:10.37,2013-05-18 15:21:00,
2013-05-18 10:26:00,80.5,73.0,29.83,SSE,149,5.2,8.1,78,0.00,SCT,,0.00,711.7,WeatherDisplay:10.37,2013-05-18 15:26:00,
2013-05-18 10:31:00,80.9,73.4,29.83,SSW,203,5.4,11.5,78,0.00,SCT,,0.00,707.3,WeatherDisplay:10.37,2013-05-18 15:31:00,
2013-05-18 10:36:00,80.7,72.8,29.83,SSE,156,5.5,10.4,77,0.00,SCT,,0.00,729.3,WeatherDisplay:10.37,2013-05-18 15:36:00,
2013-05-18 10:41:00,80.9,73.0,29.83,SSE,157,6.2,10.4,77,0.00,SCT,,0.00,746.9,WeatherDisplay:10.37,2013-05-18 15:41:00,
2013-05-18 10:46:00,81.1,72.8,29.83,SE,140,4.3,9.2,76,0.00,SCT,,0.00,801.9,WeatherDisplay:10.37,2013-05-18 15:46:00,
2013-05-18 10:51:00,81.5,72.4,29.83,SSE,153,6.7,10.4,74,0.00,SCT,,0.00,777.7,WeatherDisplay:10.37,2013-05-18 15:51:00,
2013-05-18 10:56:00,81.9,73.6,29.83,SSE,155,5.9,8.1,76,0.00,SCT,,0.00,801.9,WeatherDisplay:10.37,2013-05-18 15:56:00,
2013-05-18 11:01:00,82.0,72.1,29.83,SSW,193,6.5,11.5,72,0.00,SCT,,0.00,814.0,WeatherDisplay:10.37,2013-05-18 16:01:00,
2013-05-18 11:06:00,82.1,73.0,29.83,SSE,167,6.4,10.4,74,0.00,SCT,,0.00,819.5,WeatherDisplay:10.37,2013-05-18 16:06:00,
2013-05-18 11:11:00,82.6,72.7,29.83,South,181,3.4,9.2,72,0.00,SCT,,0.00,818.4,WeatherDisplay:10.37,2013-05-18 16:11:00,
2013-05-18 11:16:00,82.8,72.4,29.83,SSE,158,6.1,11.5,71,0.00,SCT,,0.00,839.3,WeatherDisplay:10.37,2013-05-18 16:16:00,
2013-05-18 11:21:00,82.8,72.4,29.83,SSW,194,6.5,13.8,71,0.00,SCT,,0.00,860.2,WeatherDisplay:10.37,2013-05-18 16:21:00,
2013-05-18 11:26:00,83.1,72.7,29.83,South,189,4.9,11.5,71,0.00,SCT,,0.00,880.0,WeatherDisplay:10.37,2013-05-18 16:26:00,
2013-05-18 11:31:00,83.3,72.5,29.83,SE,146,5.1,16.1,70,0.00,CLR,,0.00,874.5,WeatherDisplay:10.37,2013-05-18 16:31:00,
2013-05-18 11:36:00,83.8,72.5,29.83,SSE,154,8.2,12.7,69,0.00,CLR,,0.00,883.3,WeatherDisplay:10.37,2013-05-18 16:36:00,
2013-05-18 11:41:00,83.9,72.6,29.83,SSW,196,2.7,12.7,69,0.00,CLR,,0.00,905.3,WeatherDisplay:10.37,2013-05-18 16:41:00,
2013-05-18 11:46:00,84.6,72.9,29.83,SSE,151,4.2,11.5,68,0.00,SCT,,0.00,905.3,WeatherDisplay:10.37,2013-05-18 16:46:00,
2013-05-18 11:51:00,84.5,72.3,29.82,SSE,156,8.7,11.5,67,0.00,SCT,,0.00,924.0,WeatherDisplay:10.37,2013-05-18 16:51:00,
2013-05-18 11:56:00,84.3,73.0,29.82,South,185,2.9,9.0,69,0.00,SCT,,0.00,920.7,WeatherDisplay:10.37,2013-05-18 16:56:00,
2013-05-18 12:01:00,85.2,72.6,29.82,South,186,6.1,11.5,66,0.00,CLR,,0.00,921.8,WeatherDisplay:10.37,2013-05-18 17:01:00,
2013-05-18 12:06:00,85.3,73.5,29.82,South,191,8.5,12.7,68,0.00,CLR,,0.00,920.7,WeatherDisplay:10.37,2013-05-18 17:06:00,
2013-05-18 12:11:00,85.2,73.4,29.82,SSE,155,4.8,10.0,68,0.00,CLR,,0.00,941.6,WeatherDisplay:10.37,2013-05-18 17:11:00,
2013-05-18 12:16:00,85.2,72.6,29.82,SSE,155,8.5,15.0,66,0.00,CLR,,0.00,964.7,WeatherDisplay:10.37,2013-05-18 17:16:00,
2013-05-18 12:21:00,85.1,72.5,29.81,South,183,1.5,10.4,66,0.00,CLR,,0.00,962.5,WeatherDisplay:10.37,2013-05-18 17:21:00,
2013-05-18 12:26:00,85.8,73.1,29.81,SSE,160,5.8,8.1,66,0.00,CLR,,0.00,977.9,WeatherDisplay:10.37,2013-05-18 17:26:00,
2013-05-18 12:31:00,86.1,73.4,29.81,SSE,152,5.2,11.5,66,0.00,CLR,,0.00,976.8,WeatherDisplay:10.37,2013-05-18 17:31:00,
2013-05-18 12:36:00,85.8,73.1,29.81,SSE,154,9.0,11.5,66,0.00,CLR,,0.00,1010.9,WeatherDisplay:10.37,2013-05-18 17:36:00,
2013-05-18 12:41:00,85.9,73.2,29.80,SE,131,3.4,6.9,66,0.00,CLR,,0.00,995.5,WeatherDisplay:10.37,2013-05-18 17:41:00,
2013-05-18 12:46:00,85.8,73.1,29.80,SSE,155,7.4,10.4,66,0.00,CLR,,0.00,1005.4,WeatherDisplay:10.37,2013-05-18 17:46:00,
2013-05-18 12:51:00,86.0,73.3,29.80,SSE,147,7.1,13.8,66,0.00,CLR,,0.00,1013.1,WeatherDisplay:10.37,2013-05-18 17:51:00,
2013-05-18 12:56:00,86.1,73.0,29.79,SSE,151,6.9,15.0,65,0.00,CLR,,0.00,985.6,WeatherDisplay:10.37,2013-05-18 17:56:00,
2013-05-18 13:01:00,86.2,73.0,29.79,SSE,157,6.1,9.2,65,0.00,CLR,,0.00,1043.9,WeatherDisplay:10.37,2013-05-18 18:01:00,
2013-05-18 13:06:00,87.0,73.8,29.79,SSE,164,9.2,15.0,65,0.00,CLR,,0.00,1043.9,WeatherDisplay:10.37,2013-05-18 18:06:00,
2013-05-18 13:11:00,86.5,73.8,29.79,SSE,148,10.6,16.1,66,0.00,CLR,,0.00,800.8,WeatherDisplay:10.37,2013-05-18 18:11:00,
2013-05-18 13:16:00,85.1,72.9,29.79,SSE,151,6.8,8.1,67,0.00,CLR,,0.00,283.8,WeatherDisplay:10.37,2013-05-18 18:16:00,
2013-05-18 13:21:00,84.3,72.6,29.79,SE,129,5.5,12.7,68,0.00,CLR,,0.00,418.0,WeatherDisplay:10.37,2013-05-18 18:21:00,
2013-05-18 13:26:00,84.6,73.3,29.79,SSE,158,5.1,9.2,69,0.00,CLR,,0.00,798.6,WeatherDisplay:10.37,2013-05-18 18:26:00,
2013-05-18 13:31:00,86.0,74.2,29.79,SSE,156,4.3,8.1,68,0.00,CLR,,0.00,1081.3,WeatherDisplay:10.37,2013-05-18 18:31:00,
2013-05-18 13:36:00,86.5,73.3,29.78,SSE,160,10.2,17.3,65,0.00,CLR,,0.00,1046.1,WeatherDisplay:10.37,2013-05-18 18:36:00,
2013-05-18 13:41:00,86.9,74.6,29.78,SSE,156,3.2,11.0,67,0.00,CLR,,0.00,1007.6,WeatherDisplay:10.37,2013-05-18 18:41:00,
2013-05-18 13:46:00,87.7,74.0,29.78,SE,139,4.9,11.5,64,0.00,CLR,,0.00,1026.3,WeatherDisplay:10.37,2013-05-18 18:46:00,
2013-05-18 13:51:00,88.6,74.4,29.78,SSE,150,8.6,11.5,63,0.00,CLR,,0.00,992.2,WeatherDisplay:10.37,2013-05-18 18:51:00,
2013-05-18 13:56:00,88.2,73.5,29.77,SE,141,9.0,12.0,62,0.00,CLR,,0.00,1002.1,WeatherDisplay:10.37,2013-05-18 18:56:00,
2013-05-18 14:01:00,88.4,74.2,29.77,SSE,157,5.1,11.5,63,0.00,CLR,,0.00,970.2,WeatherDisplay:10.37,2013-05-18 19:01:00,
2013-05-18 14:06:00,88.2,74.5,29.77,South,183,6.6,10.4,64,0.00,CLR,,0.00,1020.8,WeatherDisplay:10.37,2013-05-18 19:06:00,
2013-05-18 14:11:00,88.2,74.5,29.77,SSE,154,8.9,17.3,64,0.00,CLR,,0.00,994.4,WeatherDisplay:10.37,2013-05-18 19:11:00,
2013-05-18 14:16:00,88.3,74.6,29.77,SSE,154,6.9,10.4,64,0.00,CLR,,0.00,992.2,WeatherDisplay:10.37,2013-05-18 19:16:00,
2013-05-18 14:21:00,88.9,74.7,29.77,SSE,148,6.3,9.2,63,0.00,CLR,,0.00,976.8,WeatherDisplay:10.37,2013-05-18 19:21:00,
2013-05-18 14:26:00,88.7,73.5,29.77,SSE,153,10.2,17.3,61,0.00,CLR,,0.00,962.5,WeatherDisplay:10.37,2013-05-18 19:26:00,
2013-05-18 14:31:00,88.4,73.7,29.76,SSE,151,6.6,15.0,62,0.00,CLR,,0.00,966.9,WeatherDisplay:10.37,2013-05-18 19:31:00,
2013-05-18 14:36:00,88.7,74.0,29.76,SSE,158,9.1,20.7,62,0.00,CLR,,0.00,969.1,WeatherDisplay:10.37,2013-05-18 19:36:00,
2013-05-18 14:41:00,88.3,73.6,29.76,SSE,162,11.1,18.4,62,0.00,CLR,,0.00,924.0,WeatherDisplay:10.37,2013-05-18 19:41:00,
2013-05-18 14:46:00,88.3,73.6,29.76,South,176,8.6,18.4,62,0.00,CLR,,0.00,924.0,WeatherDisplay:10.37,2013-05-18 19:46:00,
2013-05-18 14:51:00,88.2,73.5,29.76,SSE,158,7.4,12.7,62,0.00,CLR,,0.00,933.9,WeatherDisplay:10.37,2013-05-18 19:51:00,
2013-05-18 14:56:00,88.7,74.0,29.76,SSE,151,10.6,21.9,62,0.00,CLR,,0.00,928.4,WeatherDisplay:10.37,2013-05-18 19:56:00,
2013-05-18 15:01:00,88.6,73.9,29.76,SSE,160,9.3,19.6,62,0.00,SCT,,0.00,938.3,WeatherDisplay:10.37,2013-05-18 20:01:00,
2013-05-18 15:06:00,88.7,74.0,29.75,South,170,5.5,15.0,62,0.00,SCT,,0.00,910.8,WeatherDisplay:10.37,2013-05-18 20:06:00,
2013-05-18 15:11:00,88.9,73.2,29.75,SSE,149,9.3,16.1,60,0.00,SCT,,0.00,924.0,WeatherDisplay:10.37,2013-05-18 20:11:00,
2013-05-18 15:16:00,89.3,74.1,29.75,SSE,167,7.2,11.5,61,0.00,SCT,,0.00,924.0,WeatherDisplay:10.37,2013-05-18 20:16:00,
2013-05-18 15:21:00,88.8,74.1,29.75,SSE,155,9.7,13.8,62,0.00,SCT,,0.00,821.7,WeatherDisplay:10.37,2013-05-18 20:21:00,
2013-05-18 15:26:00,88.4,73.2,29.75,South,178,6.2,11.5,61,0.00,SCT,,0.00,844.8,WeatherDisplay:10.37,2013-05-18 20:26:00,
2013-05-18 15:31:00,89.2,74.0,29.75,South,178,7.8,18.4,61,0.00,CLR,,0.00,783.2,WeatherDisplay:10.37,2013-05-18 20:31:00,
2013-05-18 15:36:00,88.4,73.2,29.74,South,172,8.3,11.5,61,0.00,CLR,,0.00,576.4,WeatherDisplay:10.37,2013-05-18 20:36:00,
2013-05-18 15:41:00,87.9,72.8,29.74,SSE,158,6.8,11.5,61,0.00,CLR,,0.00,680.9,WeatherDisplay:10.37,2013-05-18 20:41:00,
2013-05-18 15:46:00,88.6,72.9,29.74,South,183,10.6,19.6,60,0.00,CLR,,0.00,898.7,WeatherDisplay:10.37,2013-05-18 20:46:00,
2013-05-18 15:51:00,88.9,73.7,29.74,SSE,156,5.4,12.0,61,0.00,CLR,,0.00,624.8,WeatherDisplay:10.37,2013-05-18 20:51:00,
2013-05-18 15:56:00,88.4,72.2,29.74,SSE,154,9.1,18.4,59,0.00,CLR,,0.00,543.4,WeatherDisplay:10.37,2013-05-18 20:56:00,
2013-05-18 16:01:00,88.2,73.0,29.73,South,170,10.7,18.4,61,0.00,CLR,,0.00,653.4,WeatherDisplay:10.37,2013-05-18 21:01:00,
2013-05-18 16:06:00,89.0,72.3,29.73,SSE,159,15.1,25.3,58,0.00,CLR,,0.00,800.8,WeatherDisplay:10.37,2013-05-18 21:06:00,
2013-05-18 16:11:00,89.2,72.0,29.73,South,171,8.8,18.4,57,0.00,CLR,,0.00,678.7,WeatherDisplay:10.37,2013-05-18 21:11:00,
2013-05-18 16:16:00,89.6,71.8,29.73,South,178,8.6,16.1,56,0.00,CLR,,0.00,647.9,WeatherDisplay:10.37,2013-05-18 21:16:00,
2013-05-18 16:21:00,89.8,73.0,29.72,SSE,158,6.3,10.4,58,0.00,CLR,,0.00,719.4,WeatherDisplay:10.37,2013-05-18 21:21:00,
2013-05-18 16:26:00,89.9,73.1,29.72,SSE,153,7.3,12.7,58,0.00,CLR,,0.00,727.1,WeatherDisplay:10.37,2013-05-18 21:26:00,
2013-05-18 16:31:00,90.1,72.8,29.72,South,187,10.9,15.0,57,0.00,CLR,,0.00,800.8,WeatherDisplay:10.37,2013-05-18 21:31:00,
2013-05-18 16:36:00,89.2,72.0,29.72,SSE,160,9.7,17.0,57,0.00,CLR,,0.00,765.6,WeatherDisplay:10.37,2013-05-18 21:36:00,
2013-05-18 16:41:00,89.6,72.3,29.72,South,176,9.4,13.0,57,0.00,CLR,,0.00,734.8,WeatherDisplay:10.37,2013-05-18 21:41:00,
2013-05-18 16:46:00,89.7,72.4,29.73,SSE,166,11.2,12.7,57,0.00,CLR,,0.00,694.1,WeatherDisplay:10.37,2013-05-18 21:46:00,
2013-05-18 16:51:00,89.7,71.9,29.72,South,170,9.3,15.0,56,0.00,CLR,,0.00,576.4,WeatherDisplay:10.37,2013-05-18 21:51:00,
2013-05-18 16:56:00,89.0,71.3,29.72,SSE,168,11.1,14.0,56,0.00,CLR,,0.00,398.2,WeatherDisplay:10.37,2013-05-18 21:56:00,
2013-05-18 17:01:00,88.7,72.0,29.72,SSE,155,9.7,15.0,58,0.00,CLR,,0.00,668.8,WeatherDisplay:10.37,2013-05-18 22:01:00,
2013-05-18 17:06:00,88.3,72.2,29.72,SSE,156,9.9,14.0,59,0.00,CLR,,0.00,504.9,WeatherDisplay:10.37,2013-05-18 22:06:00,
2013-05-18 17:11:00,88.6,72.4,29.72,SSE,162,6.1,12.7,59,0.00,CLR,,0.00,438.9,WeatherDisplay:10.37,2013-05-18 22:11:00,
2013-05-18 17:16:00,89.0,71.8,29.71,SSE,154,8.1,13.8,57,0.00,CLR,,0.00,620.4,WeatherDisplay:10.37,2013-05-18 22:16:00,
2013-05-18 17:21:00,89.9,73.1,29.71,SSE,161,8.0,11.5,58,0.00,CLR,,0.00,587.4,WeatherDisplay:10.37,2013-05-18 22:21:00,
2013-05-18 17:26:00,90.3,72.5,29.71,SSE,149,5.7,11.5,56,0.00,CLR,,0.00,570.9,WeatherDisplay:10.37,2013-05-18 22:26:00,
2013-05-18 17:31:00,90.2,71.8,29.70,SSE,156,10.5,19.6,55,0.00,CLR,,0.00,537.9,WeatherDisplay:10.37,2013-05-18 22:31:00,
2013-05-18 17:36:00,90.6,72.2,29.70,SSE,153,6.8,18.4,55,0.00,CLR,,0.00,528.0,WeatherDisplay:10.37,2013-05-18 22:36:00,
2013-05-18 17:41:00,89.7,71.4,29.70,SSE,152,9.3,17.3,55,0.00,CLR,,0.00,510.4,WeatherDisplay:10.37,2013-05-18 22:41:00,
2013-05-18 17:46:00,90.0,72.2,29.70,SSE,155,8.1,15.0,56,0.00,CLR,,0.00,481.8,WeatherDisplay:10.37,2013-05-18 22:46:00,
2013-05-18 17:51:00,89.8,72.0,29.70,SSE,156,10.0,11.5,56,0.00,CLR,,0.00,464.2,WeatherDisplay:10.37,2013-05-18 22:51:00,
2013-05-18 17:56:00,89.2,72.0,29.69,SE,141,9.4,16.1,57,0.00,CLR,,0.00,433.4,WeatherDisplay:10.37,2013-05-18 22:56:00,
2013-05-18 18:01:00,88.9,71.7,29.69,South,174,21.9,22.0,57,0.00,CLR,,0.00,418.0,WeatherDisplay:10.37,2013-05-18 23:01:00,
2013-05-18 18:06:00,88.7,71.5,29.69,SE,137,13.3,23.0,57,0.00,CLR,,0.00,390.5,WeatherDisplay:10.37,2013-05-18 23:06:00,
2013-05-18 18:11:00,88.6,71.4,29.69,SSE,159,9.6,19.6,57,0.00,CLR,,0.00,309.1,WeatherDisplay:10.37,2013-05-18 23:11:00,
2013-05-18 18:16:00,88.5,71.8,29.69,South,174,6.4,13.8,58,0.00,CLR,,0.00,357.5,WeatherDisplay:10.37,2013-05-18 23:16:00,
2013-05-18 18:21:00,88.4,71.7,29.68,SSE,159,9.8,11.5,58,0.00,CLR,,0.00,334.4,WeatherDisplay:10.37,2013-05-18 23:21:00,
2013-05-18 18:26:00,88.4,72.2,29.68,SSE,154,6.0,11.5,59,0.00,CLR,,0.00,319.0,WeatherDisplay:10.37,2013-05-18 23:26:00,
2013-05-18 18:31:00,88.2,71.6,29.68,SSE,158,7.8,18.0,58,0.00,CLR,,0.00,298.1,WeatherDisplay:10.37,2013-05-18 23:31:00,
2013-05-18 18:36:00,88.0,71.9,29.68,SSE,156,10.5,17.3,59,0.00,CLR,,0.00,282.7,WeatherDisplay:10.37,2013-05-18 23:36:00,
2013-05-18 18:41:00,87.6,71.5,29.68,SSE,158,10.3,19.6,59,0.00,CLR,,0.00,267.3,WeatherDisplay:10.37,2013-05-18 23:41:00,
2013-05-18 18:46:00,87.1,71.5,29.67,SSE,160,10.9,18.4,60,0.00,CLR,,0.00,119.9,WeatherDisplay:10.37,2013-05-18 23:46:00,
2013-05-18 18:51:00,86.3,71.3,29.68,SSE,157,8.9,16.1,61,0.00,CLR,,0.00,51.7,WeatherDisplay:10.37,2013-05-18 23:51:00,
2013-05-18 18:56:00,85.8,70.8,29.68,SSE,158,8.4,11.5,61,0.00,CLR,,0.00,53.9,WeatherDisplay:10.37,2013-05-18 23:56:00,
2013-05-18 19:01:00,85.5,71.5,29.69,SSE,159,5.7,11.5,63,0.00,CLR,,0.00,53.9,WeatherDisplay:10.37,2013-05-19 00:01:00,
2013-05-18 19:06:00,85.5,71.5,29.69,SSE,149,5.0,10.4,63,0.00,CLR,,0.00,58.3,WeatherDisplay:10.37,2013-05-19 00:06:00,
2013-05-18 19:11:00,85.4,71.4,29.69,SSE,156,9.4,17.3,63,0.00,CLR,,0.00,68.2,WeatherDisplay:10.37,2013-05-19 00:11:00,
2013-05-18 19:16:00,85.3,71.7,29.70,SSE,167,7.2,12.7,64,0.00,CLR,,0.00,63.8,WeatherDisplay:10.37,2013-05-19 00:16:00,
2013-05-18 19:21:00,85.2,71.6,29.70,SSE,155,4.6,11.5,64,0.00,CLR,,0.00,53.9,WeatherDisplay:10.37,2013-05-19 00:21:00,
2013-05-18 19:26:00,84.8,71.7,29.70,SE,145,7.5,8.1,65,0.00,CLR,,0.00,48.4,WeatherDisplay:10.37,2013-05-19 00:26:00,
2013-05-18 19:31:00,84.5,71.9,29.69,SSE,155,6.8,8.1,66,0.00,CLR,,0.00,42.9,WeatherDisplay:10.37,2013-05-19 00:31:00,
2013-05-18 19:36:00,84.3,72.1,29.69,SSE,154,5.2,11.5,67,0.00,CLR,,0.00,38.5,WeatherDisplay:10.37,2013-05-19 00:36:00,
2013-05-18 19:41:00,84.2,72.0,29.68,SSE,151,6.4,10.0,67,0.00,CLR,,0.00,33.0,WeatherDisplay:10.37,2013-05-19 00:41:00,
2013-05-18 19:46:00,83.9,71.8,29.68,SSE,157,10.3,15.0,67,0.00,CLR,,0.00,28.6,WeatherDisplay:10.37,2013-05-19 00:46:00,
2013-05-18 19:51:00,83.9,71.8,29.68,SSE,157,10.5,15.0,67,0.00,CLR,,0.00,27.5,WeatherDisplay:10.37,2013-05-19 00:51:00,
2013-05-18 19:56:00,84.0,71.9,29.68,SSE,156,7.8,11.5,67,0.00,CLR,,0.00,23.1,WeatherDisplay:10.37,2013-05-19 00:56:00,
2013-05-18 20:01:00,83.9,71.8,29.68,SSE,154,6.0,11.5,67,0.00,CLR,,0.00,17.6,WeatherDisplay:10.37,2013-05-19 01:01:00,
2013-05-18 20:06:00,83.7,71.6,29.68,SSE,161,9.4,17.3,67,0.00,CLR,,0.00,13.2,WeatherDisplay:10.37,2013-05-19 01:06:00,
2013-05-18 20:11:00,83.5,71.8,29.68,SSE,153,4.3,11.5,68,0.00,CLR,,0.00,9.9,WeatherDisplay:10.37,2013-05-19 01:11:00,
2013-05-18 20:16:00,83.4,71.7,29.68,SE,143,3.9,11.5,68,0.00,CLR,,0.00,5.5,WeatherDisplay:10.37,2013-05-19 01:16:00,
2013-05-18 20:21:00,83.3,71.6,29.69,SE,145,3.7,8.1,68,0.00,CLR,,0.00,0.0,WeatherDisplay:10.37,2013-05-19 01:21:00,
2013-05-18 20:26:00,83.0,71.8,29.69,SSE,151,3.5,6.0,69,0.00,CLR,,0.00,0.0,WeatherDisplay:10.37,2013-05-19 01:26:00,
2013-05-18 20:31:00,82.4,71.6,29.69,SSE,149,5.9,10.4,70,0.00,CLR,,0.00,0.0,WeatherDisplay:10.37,2013-05-19 01:31:00,
2013-05-18 20:36:00,82.4,71.2,29.69,SSE,154,6.0,10.4,69,0.00,CLR,,0.00,0.0,WeatherDisplay:10.37,2013-05-19 01:36:00,
2013-05-18 20:41:00,82.4,71.2,29.69,SSE,156,4.7,9.2,69,0.00,CLR,,0.00,0.0,WeatherDisplay:10.37,2013-05-19 01:41:00,
2013-05-18 20:46:00,82.2,71.0,29.69,SSE,158,7.1,12.7,69,0.00,CLR,,0.00,0.0,WeatherDisplay:10.37,2013-05-19 01:46:00,
2013-05-18 20:51:00,82.2,71.4,29.70,SSE,149,3.7,10.4,70,0.00,CLR,,0.00,0.0,WeatherDisplay:10.37,2013-05-19 01:51:00,
2013-05-18 20:56:00,81.9,71.2,29.70,SSE,149,3.0,8.1,70,0.00,CLR,,0.00,0.0,WeatherDisplay:10.37,2013-05-19 01:56:00,
2013-05-18 21:01:00,81.5,71.2,29.70,SSE,149,4.9,8.0,71,0.00,CLR,,0.00,0.0,WeatherDisplay:10.37,2013-05-19 02:01:00,
2013-05-18 21:06:00,81.3,71.4,29.71,SE,145,4.5,10.4,72,0.00,CLR,,0.00,0.0,WeatherDisplay:10.37,2013-05-19 02:06:00,
2013-05-18 21:11:00,81.5,71.6,29.71,SE,144,5.9,8.1,72,0.00,CLR,,0.00,0.0,WeatherDisplay:10.37,2013-05-19 02:11:00,
2013-05-18 21:16:00,81.5,71.6,29.71,SSE,152,4.6,10.0,72,0.00,CLR,,0.00,0.0,WeatherDisplay:10.37,2013-05-19 02:16:00,
2013-05-18 21:21:00,81.5,71.6,29.70,SSE,151,9.1,18.4,72,0.00,CLR,,0.00,0.0,WeatherDisplay:10.37,2013-05-19 02:21:00,
2013-05-18 21:26:00,81.5,71.6,29.70,SSE,153,6.5,11.5,72,0.00,CLR,,0.00,0.0,WeatherDisplay:10.37,2013-05-19 02:26:00,
2013-05-18 21:31:00,81.5,71.6,29.70,SSE,155,9.1,11.5,72,0.00,CLR,,0.00,0.0,WeatherDisplay:10.37,2013-05-19 02:31:00,
2013-05-18 21:36:00,81.3,71.8,29.70,SSE,147,8.4,13.8,73,0.00,CLR,,0.00,0.0,WeatherDisplay:10.37,2013-05-19 02:36:00,
2013-05-18 21:41:00,81.0,71.9,29.70,SSE,147,7.5,12.7,74,0.00,CLR,,0.00,0.0,WeatherDisplay:10.37,2013-05-19 02:41:00,
2013-05-18 21:46:00,80.9,71.8,29.70,SSE,154,7.6,15.0,74,0.00,CLR,,0.00,0.0,WeatherDisplay:10.37,2013-05-19 02:46:00,
2013-05-18 21:51:00,80.9,71.8,29.70,SSE,158,8.4,17.3,74,0.00,CLR,,0.00,0.0,WeatherDisplay:10.37,2013-05-19 02:51:00,
2013-05-18 21:56:00,80.9,71.8,29.70,South,185,6.4,11.5,74,0.00,CLR,,0.00,0.0,WeatherDisplay:10.37,2013-05-19 02:56:00,
2013-05-18 22:01:00,80.8,71.7,29.70,South,179,7.9,13.8,74,0.00,CLR,,0.00,0.0,WeatherDisplay:10.37,2013-05-19 03:01:00,
2013-05-18 22:06:00,80.9,71.8,29.70,SSE,152,5.8,16.1,74,0.00,CLR,,0.00,0.0,WeatherDisplay:10.37,2013-05-19 03:06:00,
2013-05-18 22:11:00,80.8,72.1,29.72,SSE,154,8.0,12.7,75,0.00,CLR,,0.00,0.0,WeatherDisplay:10.37,2013-05-19 03:11:00,
2013-05-18 22:16:00,80.8,72.1,29.72,SSE,156,5.2,11.5,75,0.00,CLR,,0.00,0.0,WeatherDisplay:10.37,2013-05-19 03:16:00,
2013-05-18 22:21:00,80.8,72.1,29.72,SSE,151,6.0,8.1,75,0.00,CLR,,0.00,0.0,WeatherDisplay:10.37,2013-05-19 03:21:00,
2013-05-18 22:26:00,80.6,71.9,29.73,South,171,4.9,9.0,75,0.00,CLR,,0.00,0.0,WeatherDisplay:10.37,2013-05-19 03:26:00,
2013-05-18 22:31:00,80.5,72.2,29.74,SSE,164,3.8,8.1,76,0.00,CLR,,0.00,0.0,WeatherDisplay:10.37,2013-05-19 03:31:00,
2013-05-18 22:36:00,80.2,71.9,29.74,SSE,158,4.0,4.6,76,0.00,CLR,,0.00,0.0,WeatherDisplay:10.37,2013-05-19 03:36:00,
2013-05-18 22:41:00,80.2,72.3,29.74,SSE,158,3.7,8.1,77,0.00,CLR,,0.00,0.0,WeatherDisplay:10.37,2013-05-19 03:41:00,
2013-05-18 22:46:00,80.1,72.2,29.74,SSE,153,2.9,10.4,77,0.00,CLR,,0.00,0.0,WeatherDisplay:10.37,2013-05-19 03:46:00,
2013-05-18 22:51:00,79.8,72.3,29.74,SSE,150,3.9,6.9,78,0.00,CLR,,0.00,0.0,WeatherDisplay:10.37,2013-05-19 03:51:00,
2013-05-18 22:56:00,79.6,72.1,29.74,SSE,157,3.4,13.8,78,0.00,CLR,,0.00,0.0,WeatherDisplay:10.37,2013-05-19 03:56:00,
2013-05-18 23:01:00,79.6,72.1,29.74,SSE,163,3.6,8.1,78,0.00,CLR,,0.00,0.0,WeatherDisplay:10.37,2013-05-19 04:01:00,
2013-05-18 23:06:00,79.5,72.0,29.74,SSE,156,4.2,6.9,78,0.00,CLR,,0.00,0.0,WeatherDisplay:10.37,2013-05-19 04:06:00,
2013-05-18 23:11:00,79.4,72.3,29.74,South,173,7.0,10.4,79,0.00,CLR,,0.00,0.0,WeatherDisplay:10.37,2013-05-19 04:11:00,
2013-05-18 23:16:00,79.3,72.2,29.74,SSE,161,3.9,5.8,79,0.00,CLR,,0.00,0.0,WeatherDisplay:10.37,2013-05-19 04:16:00,
2013-05-18 23:21:00,79.2,72.1,29.74,SSE,159,3.2,5.8,79,0.00,CLR,,0.00,0.0,WeatherDisplay:10.37,2013-05-19 04:21:00,
2013-05-18 23:26:00,79.0,72.3,29.74,SSE,157,4.3,9.2,80,0.00,CLR,,0.00,0.0,WeatherDisplay:10.37,2013-05-19 04:26:00,
2013-05-18 23:31:00,79.0,71.9,29.74,SSE,151,1.4,4.6,79,0.00,CLR,,0.00,0.0,WeatherDisplay:10.37,2013-05-19 04:31:00,
2013-05-18 23:36:00,78.9,72.2,29.74,SSE,156,3.9,5.8,80,0.00,CLR,,0.00,0.0,WeatherDisplay:10.37,2013-05-19 04:36:00,
2013-05-18 23:41:00,78.9,72.2,29.73,SSE,155,0.7,5.8,80,0.00,CLR,,0.00,0.0,WeatherDisplay:10.37,2013-05-19 04:41:00,
2013-05-18 23:46:00,78.8,72.1,29.73,SSE,150,3.3,10.4,80,0.00,CLR,,0.00,0.0,WeatherDisplay:10.37,2013-05-19 04:46:00,
2013-05-18 23:51:00,78.6,71.9,29.73,SSE,151,7.0,10.4,80,0.00,CLR,,0.00,0.0,WeatherDisplay:10.37,2013-05-19 04:51:00,
2013-05-18 23:56:00,78.6,71.5,29.73,SSE,152,7.5,10.0,79,0.00,CLR,,0.00,0.0,WeatherDisplay:10.37,2013-05-19 04:56:00,